| time (UTC) | temp F | wind direction | speed knots | gust knots | rain 1hr in | rain 24hr in | rain mn in | humidity % | barometer mb |
| 20260504201531 | 83 | 143 | 0.0 | 2.6 | 0.00 | 0.00 | 0.00 | 53 | 1007.6 |
| 20260504200028 | 83 | 165 | 0.0 | 1.7 | 0.00 | 0.00 | 0.00 | 53 | 1007.9 |
| 20260504194527 | 83 | 160 | 0.0 | 2.6 | 0.00 | 0.00 | 0.00 | 53 | 1008.3 |
| 20260504193027 | 84 | 186 | 0.0 | 3.5 | 0.00 | 0.00 | 0.00 | 51 | 1008.5 |
| 20260504191525 | 83 | 197 | 0.0 | 3.5 | 0.00 | 0.00 | 0.00 | 53 | 1008.7 |
| 20260504190020 | 83 | 159 | 0.0 | 2.6 | 0.00 | 0.00 | 0.00 | 51 | 1009.0 |
| 20260504184521 | 83 | 184 | 0.0 | 2.6 | 0.00 | 0.00 | 0.00 | 53 | 1009.3 |
| 20260504183015 | 82 | 131 | 0.0 | 3.5 | 0.00 | 0.00 | 0.00 | 53 | 1009.4 |
| 20260504181512 | 81 | 160 | 0.0 | 2.6 | 0.00 | 0.00 | 0.00 | 53 | 1009.7 |
| 20260504180012 | 82 | 200 | 0.0 | 1.7 | 0.00 | 0.00 | 0.00 | 52 | 1009.9 |
| 20260504174507 | 81 | 194 | 0.0 | 3.5 | 0.00 | 0.00 | 0.00 | 53 | 1010.1 |
| 20260504173005 | 80 | 197 | 0.9 | 3.5 | 0.00 | 0.00 | 0.00 | 52 | 1010.2 |
| 20260504171501 | 80 | 148 | 0.0 | 2.6 | 0.00 | 0.00 | 0.00 | 54 | 1010.5 |
| 20260504081553 | 63 | 155 | 0.0 | 2.6 | 0.00 | 0.00 | 0.00 | 61 | 1012.7 |
| 20260504044520 | 68 | 154 | 0.0 | 0.9 | 0.00 | 0.00 | 0.00 | 54 | 1014.8 |
| 20260504043027 | 69 | 148 | 0.0 | 0.9 | 0.00 | 0.00 | 0.00 | 53 | 1015.0 |
| 20260504041522 | 69 | 167 | 0.0 | 0.9 | 0.00 | 0.00 | 0.00 | 52 | 1015.0 |
| 20260504040002 | 70 | 153 | 0.0 | 0.9 | 0.00 | 0.00 | 0.00 | 50 | 1015.1 |
| 20260504034502 | 70 | 152 | 0.0 | 0.9 | 0.00 | 0.00 | 0.00 | 50 | 1014.9 |
| 20260504033100 | 70 | 146 | 0.0 | 2.6 | 0.00 | 0.00 | 0.00 | 50 | 1014.9 |
| 20260504031623 | 70 | 144 | 0.0 | 0.9 | 0.00 | 0.00 | 0.00 | 50 | 1015.0 |
| 20260504030059 | 71 | 158 | 0.0 | 0.9 | 0.00 | 0.00 | 0.00 | 50 | 1014.8 |
| 20260504024604 | 71 | 152 | 0.0 | 1.7 | 0.00 | 0.00 | 0.00 | 49 | 1014.8 |
| 20260504023059 | 72 | 131 | 0.0 | 1.7 | 0.00 | 0.00 | 0.00 | 47 | 1014.7 |
| 20260504021558 | 72 | 145 | 0.0 | 0.9 | 0.00 | 0.00 | 0.00 | 46 | 1014.6 |
| 20260504020110 | 73 | 155 | 0.0 | 0.9 | 0.00 | 0.00 | 0.00 | 43 | 1014.7 |
| 20260504014557 | 73 | 148 | 0.0 | 1.7 | 0.00 | 0.00 | 0.00 | 42 | 1014.6 |
| 20260504013057 | 74 | 158 | 0.0 | 3.5 | 0.00 | 0.00 | 0.00 | 41 | 1014.4 |
| 20260504011556 | 74 | 167 | 0.0 | 0.9 | 0.00 | 0.00 | 0.00 | 41 | 1014.3 |
| 20260504010056 | 75 | 242 | 0.0 | 0.9 | 0.00 | 0.00 | 0.00 | 39 | 1014.3 |
| 20260504004555 | 76 | 157 | 0.0 | 1.7 | 0.00 | 0.00 | 0.00 | 38 | 1014.4 |
| 20260504003054 | 76 | 154 | 0.0 | 1.7 | 0.00 | 0.00 | 0.00 | 38 | 1014.3 |
| 20260504001555 | 77 | 201 | 0.0 | 2.6 | 0.00 | 0.00 | 0.00 | 37 | 1014.5 |
| 20260504000052 | 78 | 217 | 0.0 | 1.7 | 0.00 | 0.00 | 0.00 | 36 | 1014.5 |
| 20260503234615 | 78 | 155 | 0.0 | 2.6 | 0.00 | 0.00 | 0.00 | 36 | 1014.5 |
| 20260503233051 | 79 | 156 | 0.0 | 1.7 | 0.00 | 0.00 | 0.00 | 36 | 1014.8 |
| 20260503231549 | 80 | 164 | 0.0 | 1.7 | 0.00 | 0.00 | 0.00 | 35 | 1014.7 |
| 20260503230047 | 81 | 148 | 0.0 | 3.5 | 0.00 | 0.00 | 0.00 | 33 | 1014.9 |
| 20260503224546 | 82 | 148 | 0.0 | 1.7 | 0.00 | 0.00 | 0.00 | 33 | 1014.9 |
| 20260503223046 | 84 | 211 | 0.0 | 0.9 | 0.00 | 0.00 | 0.00 | 31 | 1014.9 |
| 20260503221554 | 85 | 224 | 0.0 | 0.9 | 0.00 | 0.00 | 0.00 | 30 | 1015.2 |
| 20260503220042 | 86 | 156 | 0.0 | 4.3 | 0.00 | 0.00 | 0.00 | 30 | 1015.4 |
| 20260503214539 | 87 | 165 | 0.0 | 1.7 | 0.00 | 0.00 | 0.00 | 31 | 1015.5 |
| 20260503213042 | 87 | 250 | 0.0 | 1.7 | 0.00 | 0.00 | 0.00 | 30 | 1015.7 |
| 20260503211538 | 87 | 278 | 0.0 | 0.9 | 0.00 | 0.00 | 0.00 | 28 | 1016.0 |
| 20260503210034 | 87 | 222 | 0.0 | 1.7 | 0.00 | 0.00 | 0.00 | 29 | 1016.3 |
| 20260503204533 | 87 | 70 | 0.0 | 1.7 | 0.00 | 0.00 | 0.00 | 30 | 1016.5 |
| 20260503203038 | 87 | 156 | 0.0 | 1.7 | 0.00 | 0.00 | 0.00 | 29 | 1016.9 |